JST560 YMML-YBBN

Flight info

Callsign JST560
Flight time 1h 58m
Altitude 39000
Route ML H66 LAGOB H252 BN
Aircraft A20N/M-SDE2E3FGHIRWXY/LB1

Departure

Time 2026-05-06 07:43
Airport Melbourne Airport (YMML)

Arrival

Time 2026-05-06 09:41
Airport Brisbane International Airport (YBBN)
Time Latitude Longitude Altitude Speed Heading
2026-05-06 07:10 -37.67523 144.84741 379 ft 0 kts 171°
2026-05-06 07:12 -37.67525 144.84742 379 ft 0 kts 171°
2026-05-06 07:24 -37.67520 144.84741 379 ft 0 kts 172°
2026-05-06 07:25 -37.67518 144.84740 379 ft 0 kts 172°
2026-05-06 07:25 -37.67515 144.84740 379 ft 1 kts 172°
2026-05-06 07:25 -37.67514 144.84740 379 ft 0 kts 172°
2026-05-06 07:25 -37.67510 144.84739 379 ft 0 kts 173°
2026-05-06 07:26 -37.67508 144.84739 379 ft 0 kts 173°
2026-05-06 07:26 -37.67502 144.84738 379 ft 1 kts 172°
2026-05-06 07:26 -37.67486 144.84736 380 ft 3 kts 184°
2026-05-06 07:26 -37.67468 144.84739 380 ft 4 kts 198°
2026-05-06 07:27 -37.67440 144.84760 381 ft 5 kts 229°
2026-05-06 07:27 -37.67429 144.84783 382 ft 1 kts 250°
2026-05-06 07:27 -37.67430 144.84778 382 ft 0 kts 248°
2026-05-06 07:32 -37.67436 144.84760 382 ft 4 kts 249°
2026-05-06 07:32 -37.67448 144.84698 381 ft 10 kts 260°
2026-05-06 07:32 -37.67455 144.84594 380 ft 15 kts 266°
2026-05-06 07:32 -37.67460 144.84487 378 ft 14 kts 266°
2026-05-06 07:33 -37.67443 144.84355 377 ft 17 kts 305°
2026-05-06 07:33 -37.67355 144.84296 378 ft 11 kts 350°
2026-05-06 07:33 -37.67277 144.84280 380 ft 12 kts 352°
2026-05-06 07:33 -37.67195 144.84269 381 ft 12 kts 354°
2026-05-06 07:34 -37.67111 144.84258 383 ft 12 kts 354°
2026-05-06 07:34 -37.67028 144.84245 385 ft 12 kts 348°
2026-05-06 07:34 -37.66944 144.84219 387 ft 12 kts 350°
2026-05-06 07:34 -37.66861 144.84204 389 ft 12 kts 352°
2026-05-06 07:35 -37.66780 144.84190 392 ft 11 kts 352°
2026-05-06 07:35 -37.66736 144.84182 393 ft 0 kts 352°
2026-05-06 07:35 -37.66721 144.84163 392 ft 8 kts 301°
2026-05-06 07:36 -37.66720 144.84049 390 ft 15 kts 266°
2026-05-06 07:36 -37.66663 144.83956 395 ft 14 kts 348°
2026-05-06 07:36 -37.66574 144.83941 401 ft 12 kts 352°
2026-05-06 07:36 -37.66496 144.83928 404 ft 12 kts 352°
2026-05-06 07:37 -37.66398 144.83911 409 ft 17 kts 352°
2026-05-06 07:37 -37.66254 144.83883 412 ft 24 kts 351°
2026-05-06 07:37 -37.66066 144.83849 414 ft 29 kts 352°
2026-05-06 07:37 -37.65871 144.83816 416 ft 28 kts 352°
2026-05-06 07:38 -37.65745 144.83788 418 ft 27 kts 351°
2026-05-06 07:38 -37.65606 144.83753 421 ft 17 kts 328°
2026-05-06 07:38 -37.65584 144.83704 425 ft 0 kts 278°
2026-05-06 07:38 -37.65586 144.83688 425 ft 0 kts 260°
2026-05-06 07:41 -37.65587 144.83684 429 ft 2 kts 260°
2026-05-06 07:41 -37.65591 144.83652 416 ft 5 kts 260°
2026-05-06 07:42 -37.65600 144.83588 420 ft 9 kts 258°
2026-05-06 07:42 -37.65635 144.83554 420 ft 1 kts 160°
2026-05-06 07:42 -37.65645 144.83556 422 ft 0 kts 167°
2026-05-06 07:42 -37.65658 144.83560 421 ft 17 kts 168°
2026-05-06 07:43 -37.66105 144.83651 414 ft 110 kts 171°
2026-05-06 07:43 -37.67120 144.83853 394 ft 181 kts 168°
2026-05-06 07:43 -37.68443 144.84173 907 ft 202 kts 167°
2026-05-06 07:43 -37.69786 144.84468 1930 ft 191 kts 176°
2026-05-06 07:44 -37.71094 144.84692 2775 ft 193 kts 179°
2026-05-06 07:44 -37.72478 144.84907 3381 ft 210 kts 180°
2026-05-06 07:44 -37.73997 144.84993 3923 ft 223 kts 197°
2026-05-06 07:44 -37.75407 144.84216 4607 ft 225 kts 226°
2026-05-06 07:45 -37.76322 144.82616 5262 ft 231 kts 253°
2026-05-06 07:45 -37.76447 144.80579 6010 ft 238 kts 282°
2026-05-06 07:45 -37.76024 144.78550 7011 ft 240 kts 285°
2026-05-06 07:45 -37.75557 144.76510 7960 ft 243 kts 288°
2026-05-06 07:46 -37.74723 144.74640 8914 ft 249 kts 308°
2026-05-06 07:46 -37.73328 144.73288 9871 ft 261 kts 329°
2026-05-06 07:46 -37.71526 144.72727 10547 ft 286 kts 352°
2026-05-06 07:46 -37.69419 144.73166 10870 ft 322 kts 12°
2026-05-06 07:47 -37.67235 144.74208 11230 ft 345 kts 17°
2026-05-06 07:47 -37.65038 144.75401 12029 ft 350 kts 18°
2026-05-06 07:47 -37.62763 144.76627 12887 ft 353 kts 17°
2026-05-06 07:47 -37.60509 144.77796 13691 ft 357 kts 16°
2026-05-06 07:48 -37.58163 144.78985 14470 ft 361 kts 17°
2026-05-06 07:48 -37.55897 144.80453 15203 ft 371 kts 26°
2026-05-06 07:48 -37.53789 144.82308 15934 ft 378 kts 30°
2026-05-06 07:48 -37.51661 144.84293 16608 ft 382 kts 30°
2026-05-06 07:49 -37.49514 144.86287 17361 ft 386 kts 30°
2026-05-06 07:49 -37.47339 144.88301 18057 ft 390 kts 30°
2026-05-06 07:49 -37.45145 144.90328 18734 ft 393 kts 30°
2026-05-06 07:49 -37.42935 144.92367 19376 ft 395 kts 29°
2026-05-06 07:50 -37.40704 144.94422 20014 ft 399 kts 29°
2026-05-06 07:50 -37.38462 144.96486 20647 ft 401 kts 29°
2026-05-06 07:50 -37.36195 144.98569 21224 ft 405 kts 30°
2026-05-06 07:50 -37.33908 145.00667 21803 ft 409 kts 30°
2026-05-06 07:51 -37.31604 145.02781 22472 ft 410 kts 29°
2026-05-06 07:51 -37.29293 145.04905 23102 ft 414 kts 29°
2026-05-06 07:51 -37.26959 145.07045 23647 ft 417 kts 29°
2026-05-06 07:51 -37.24607 145.09202 24168 ft 420 kts 29°
2026-05-06 07:52 -37.22241 145.11371 24695 ft 422 kts 29°
2026-05-06 07:52 -37.19867 145.13544 25191 ft 424 kts 28°
2026-05-06 07:52 -37.17478 145.15728 25682 ft 426 kts 28°
2026-05-06 07:52 -37.15077 145.17921 26161 ft 428 kts 28°
2026-05-06 07:53 -37.12657 145.20129 26624 ft 431 kts 28°
2026-05-06 07:53 -37.10227 145.22345 27082 ft 433 kts 28°
2026-05-06 07:53 -37.07786 145.24570 27497 ft 436 kts 28°
2026-05-06 07:53 -37.05348 145.26871 27865 ft 442 kts 31°
2026-05-06 07:54 -37.02964 145.29301 28416 ft 442 kts 32°
2026-05-06 07:54 -37.00594 145.31778 28822 ft 445 kts 32°
2026-05-06 07:54 -36.98207 145.34274 29130 ft 449 kts 32°
2026-05-06 07:54 -36.95811 145.36767 29572 ft 449 kts 32°
2026-05-06 07:55 -36.93398 145.39267 29911 ft 452 kts 32°
2026-05-06 07:55 -36.90970 145.41776 30210 ft 455 kts 32°
2026-05-06 07:55 -36.88525 145.44296 30504 ft 457 kts 32°
2026-05-06 07:55 -36.86064 145.46830 30818 ft 459 kts 32°
2026-05-06 07:56 -36.83592 145.49372 31111 ft 462 kts 32°
2026-05-06 07:56 -36.81111 145.51923 31462 ft 463 kts 32°
2026-05-06 07:56 -36.78629 145.54473 31893 ft 461 kts 31°
2026-05-06 07:56 -36.76156 145.57014 32262 ft 461 kts 31°
2026-05-06 07:57 -36.73678 145.59554 32635 ft 461 kts 31°
2026-05-06 07:57 -36.71205 145.62089 33024 ft 460 kts 31°
2026-05-06 07:57 -36.68730 145.64622 33404 ft 460 kts 31°
2026-05-06 07:57 -36.66261 145.67147 33773 ft 459 kts 31°
2026-05-06 07:58 -36.63795 145.69667 34139 ft 459 kts 31°
2026-05-06 07:58 -36.61329 145.72184 34376 ft 459 kts 31°
2026-05-06 07:58 -36.58859 145.74702 34639 ft 459 kts 31°
2026-05-06 07:58 -36.56385 145.77222 34915 ft 459 kts 31°
2026-05-06 07:59 -36.53915 145.79736 35202 ft 458 kts 31°
2026-05-06 07:59 -36.51456 145.82239 35534 ft 457 kts 31°
2026-05-06 07:59 -36.48999 145.84737 35774 ft 457 kts 31°
2026-05-06 07:59 -36.46539 145.87235 35965 ft 458 kts 31°
2026-05-06 08:00 -36.44072 145.89736 36162 ft 458 kts 31°
2026-05-06 08:00 -36.41599 145.92244 36408 ft 458 kts 31°
2026-05-06 08:00 -36.39130 145.94746 36639 ft 458 kts 31°
2026-05-06 08:00 -36.36664 145.97243 36873 ft 458 kts 31°
2026-05-06 08:01 -36.34197 145.99738 37090 ft 458 kts 31°
2026-05-06 08:01 -36.31729 146.02232 37279 ft 458 kts 31°
2026-05-06 08:01 -36.29255 146.04729 37470 ft 458 kts 31°
2026-05-06 08:01 -36.26820 146.07185 37711 ft 457 kts 31°
2026-05-06 08:02 -36.24323 146.09702 37944 ft 457 kts 31°
2026-05-06 08:02 -36.21893 146.12150 38125 ft 457 kts 31°
2026-05-06 08:02 -36.19426 146.14633 38312 ft 456 kts 31°
2026-05-06 08:02 -36.16963 146.17110 38489 ft 456 kts 31°
2026-05-06 08:03 -36.14501 146.19583 38648 ft 456 kts 31°
2026-05-06 08:03 -36.12035 146.22058 38806 ft 456 kts 31°
2026-05-06 08:03 -36.09573 146.24527 38938 ft 456 kts 31°
2026-05-06 08:03 -36.07111 146.26995 39055 ft 456 kts 31°
2026-05-06 08:04 -36.02182 146.31929 39136 ft 456 kts 31°
2026-05-06 08:04 -35.97269 146.36840 39141 ft 453 kts 31°
2026-05-06 08:05 -35.92359 146.41736 39140 ft 454 kts 31°
2026-05-06 08:05 -35.87448 146.46628 39141 ft 454 kts 31°
2026-05-06 08:06 -35.82530 146.51518 39142 ft 454 kts 31°
2026-05-06 08:06 -35.77616 146.56397 39143 ft 454 kts 31°
2026-05-06 08:07 -35.72695 146.61274 39144 ft 454 kts 31°
2026-05-06 08:07 -35.67772 146.66145 39144 ft 454 kts 31°
2026-05-06 08:08 -35.62841 146.71017 39146 ft 454 kts 31°
2026-05-06 08:08 -35.57910 146.75880 39154 ft 455 kts 31°
2026-05-06 08:09 -35.52971 146.80744 39129 ft 455 kts 31°
2026-05-06 08:09 -35.48037 146.85594 39153 ft 454 kts 31°
2026-05-06 08:10 -35.43098 146.90442 39156 ft 455 kts 31°
2026-05-06 08:10 -35.38155 146.95285 39157 ft 455 kts 31°
2026-05-06 08:11 -35.33217 147.00116 39152 ft 454 kts 31°
2026-05-06 08:11 -35.28279 147.04940 39151 ft 454 kts 31°
2026-05-06 08:12 -35.23370 147.09724 39156 ft 454 kts 31°
2026-05-06 08:12 -35.18423 147.14536 39155 ft 454 kts 31°
2026-05-06 08:13 -35.13485 147.19332 39160 ft 453 kts 31°
2026-05-06 08:13 -35.08543 147.24123 39158 ft 453 kts 31°
2026-05-06 08:14 -35.03599 147.28909 39131 ft 453 kts 31°
2026-05-06 08:14 -34.98661 147.33682 39144 ft 453 kts 31°
2026-05-06 08:15 -34.93724 147.38446 39150 ft 453 kts 31°
2026-05-06 08:15 -34.88781 147.43207 39157 ft 453 kts 31°
2026-05-06 08:16 -34.83842 147.47958 39149 ft 452 kts 31°
2026-05-06 08:16 -34.78900 147.52705 39150 ft 453 kts 31°
2026-05-06 08:17 -34.73953 147.57448 39153 ft 453 kts 31°
2026-05-06 08:17 -34.69006 147.62184 39138 ft 453 kts 31°
2026-05-06 08:18 -34.64055 147.66916 39150 ft 453 kts 31°
2026-05-06 08:18 -34.59126 147.71621 39154 ft 454 kts 31°
2026-05-06 08:19 -34.54161 147.76351 39157 ft 454 kts 31°
2026-05-06 08:19 -34.49190 147.81081 39150 ft 455 kts 30°
2026-05-06 08:20 -34.44206 147.85815 39154 ft 455 kts 30°
2026-05-06 08:20 -34.39217 147.90547 39157 ft 456 kts 30°
2026-05-06 08:21 -34.34227 147.95274 39148 ft 455 kts 30°
2026-05-06 08:21 -34.29234 147.99995 39154 ft 456 kts 30°
2026-05-06 08:22 -34.24231 148.04718 39154 ft 456 kts 30°
2026-05-06 08:22 -34.19227 148.09435 39158 ft 457 kts 30°
2026-05-06 08:23 -34.14212 148.14154 39157 ft 457 kts 30°
2026-05-06 08:23 -34.09189 148.18874 39154 ft 458 kts 30°
2026-05-06 08:24 -34.04164 148.23590 39155 ft 458 kts 30°
2026-05-06 08:24 -33.99134 148.28301 39155 ft 458 kts 30°
2026-05-06 08:25 -33.94952 148.32214 39161 ft 458 kts 30°
2026-05-06 08:25 -33.89912 148.36922 39158 ft 458 kts 30°
2026-05-06 08:26 -33.84870 148.41624 39154 ft 458 kts 30°
2026-05-06 08:26 -33.79835 148.46315 39149 ft 458 kts 29°
2026-05-06 08:27 -33.74792 148.51003 39148 ft 458 kts 29°
2026-05-06 08:27 -33.69752 148.55684 39148 ft 458 kts 29°
2026-05-06 08:28 -33.64709 148.60359 39118 ft 458 kts 29°
2026-05-06 08:28 -33.59657 148.65033 39154 ft 460 kts 29°
2026-05-06 08:29 -33.54590 148.69716 39149 ft 458 kts 29°
2026-05-06 08:29 -33.49541 148.74376 39148 ft 458 kts 29°
2026-05-06 08:30 -33.44481 148.79038 39149 ft 459 kts 29°
2026-05-06 08:30 -33.39412 148.83701 39144 ft 459 kts 29°
2026-05-06 08:31 -33.34348 148.88353 39140 ft 459 kts 29°
2026-05-06 08:31 -33.29280 148.93001 39136 ft 459 kts 29°
2026-05-06 08:32 -33.24208 148.97647 39136 ft 459 kts 28°
2026-05-06 08:32 -33.19168 149.02256 39136 ft 459 kts 28°
2026-05-06 08:33 -33.14095 149.06888 39126 ft 459 kts 28°
2026-05-06 08:33 -33.09016 149.11519 39117 ft 459 kts 29°
2026-05-06 08:34 -33.01467 149.18389 39114 ft 459 kts 29°
2026-05-06 08:35 -32.96383 149.23007 39120 ft 460 kts 28°
2026-05-06 08:35 -32.91297 149.27621 39102 ft 459 kts 29°
2026-05-06 08:36 -32.86210 149.32229 39113 ft 460 kts 29°
2026-05-06 08:36 -32.81112 149.36838 39112 ft 460 kts 28°
2026-05-06 08:37 -32.76013 149.41441 39116 ft 460 kts 28°
2026-05-06 08:37 -32.70908 149.46042 39109 ft 460 kts 28°
2026-05-06 08:38 -32.65808 149.50632 39109 ft 460 kts 28°
2026-05-06 08:38 -32.60706 149.55226 39111 ft 461 kts 28°
2026-05-06 08:39 -32.55602 149.59812 39108 ft 460 kts 28°
2026-05-06 08:39 -32.50495 149.64395 39104 ft 460 kts 28°
2026-05-06 08:40 -32.45389 149.68969 39105 ft 460 kts 28°
2026-05-06 08:40 -32.40311 149.73512 39102 ft 460 kts 28°
2026-05-06 08:41 -32.35200 149.78079 39082 ft 461 kts 28°
2026-05-06 08:41 -32.30087 149.82640 39101 ft 460 kts 28°
2026-05-06 08:42 -32.24975 149.87192 39095 ft 460 kts 28°
2026-05-06 08:42 -32.19858 149.91740 39103 ft 460 kts 28°
2026-05-06 08:43 -32.14739 149.96286 39103 ft 461 kts 28°
2026-05-06 08:43 -32.09617 150.00831 39101 ft 461 kts 28°
2026-05-06 08:44 -32.04484 150.05377 39109 ft 461 kts 28°
2026-05-06 08:44 -31.99350 150.09918 39093 ft 461 kts 28°
2026-05-06 08:45 -31.94219 150.14448 39096 ft 461 kts 27°
2026-05-06 08:45 -31.89087 150.18977 39098 ft 461 kts 27°
2026-05-06 08:46 -31.83947 150.23498 39091 ft 461 kts 27°
2026-05-06 08:46 -31.78804 150.28022 39092 ft 461 kts 27°
2026-05-06 08:47 -31.73665 150.32533 39083 ft 461 kts 27°
2026-05-06 08:47 -31.68524 150.37041 39082 ft 461 kts 27°
2026-05-06 08:48 -31.63381 150.41543 39079 ft 461 kts 27°
2026-05-06 08:48 -31.58265 150.46016 39068 ft 462 kts 27°
2026-05-06 08:49 -31.53119 150.50510 39075 ft 461 kts 27°
2026-05-06 08:49 -31.47963 150.55004 39073 ft 462 kts 27°
2026-05-06 08:50 -31.42805 150.59494 39078 ft 462 kts 27°
2026-05-06 08:50 -31.37642 150.63983 39066 ft 463 kts 26°
2026-05-06 08:51 -31.32469 150.68475 39086 ft 463 kts 26°
2026-05-06 08:51 -31.27290 150.72954 39096 ft 463 kts 25°
2026-05-06 08:51 -31.24568 150.74832 39095 ft 446 kts 13°
2026-05-06 08:52 -31.21710 150.76132 39092 ft 438 kts
2026-05-06 08:52 -31.15952 150.78533 39088 ft 441 kts 10°
2026-05-06 08:53 -31.10249 150.81293 39094 ft 449 kts 15°
2026-05-06 08:53 -31.04811 150.85124 39099 ft 465 kts 26°
2026-05-06 08:54 -30.99811 150.90069 39103 ft 475 kts 32°
2026-05-06 08:54 -30.94895 150.95227 39106 ft 477 kts 31°
2026-05-06 08:55 -30.89956 151.00360 39109 ft 475 kts 31°
2026-05-06 08:55 -30.85019 151.05487 39098 ft 476 kts 31°
2026-05-06 08:56 -30.80076 151.10611 39106 ft 476 kts 31°
2026-05-06 08:56 -30.75163 151.15698 39105 ft 477 kts 31°
2026-05-06 08:57 -30.70200 151.20826 39113 ft 477 kts 31°
2026-05-06 08:57 -30.65241 151.25944 39115 ft 477 kts 31°
2026-05-06 08:58 -30.60282 151.31055 39112 ft 477 kts 31°
2026-05-06 08:58 -30.55313 151.36169 39105 ft 479 kts 30°
2026-05-06 08:59 -30.50327 151.41293 39116 ft 478 kts 30°
2026-05-06 08:59 -30.45347 151.46406 39106 ft 477 kts 30°
2026-05-06 09:00 -30.40375 151.51501 39106 ft 477 kts 30°
2026-05-06 09:00 -30.35414 151.56579 39099 ft 475 kts 30°
2026-05-06 09:01 -30.30436 151.61660 39126 ft 480 kts 30°
2026-05-06 09:01 -30.25424 151.66772 39125 ft 480 kts 30°
2026-05-06 09:02 -30.20418 151.71874 39131 ft 480 kts 30°
2026-05-06 09:02 -30.15410 151.76970 39129 ft 480 kts 30°
2026-05-06 09:03 -30.10396 151.82066 39128 ft 479 kts 30°
2026-05-06 09:03 -30.05386 151.87148 39128 ft 480 kts 30°
2026-05-06 09:04 -30.00372 151.92230 39130 ft 479 kts 30°
2026-05-06 09:04 -29.95357 151.97297 39118 ft 479 kts 30°
2026-05-06 09:05 -29.90344 152.02366 39126 ft 480 kts 30°
2026-05-06 09:05 -29.85320 152.07439 39131 ft 481 kts 30°
2026-05-06 09:06 -29.80287 152.12513 39132 ft 481 kts 29°
2026-05-06 09:06 -29.75241 152.17585 39101 ft 481 kts 29°
2026-05-06 09:07 -29.70193 152.22646 39131 ft 482 kts 29°
2026-05-06 09:07 -29.65145 152.27712 39132 ft 482 kts 29°
2026-05-06 09:08 -29.60121 152.32757 39135 ft 483 kts 29°
2026-05-06 09:08 -29.55054 152.37826 39107 ft 483 kts 28°
2026-05-06 09:09 -29.49977 152.42884 39117 ft 483 kts 28°
2026-05-06 09:09 -29.44899 152.47958 39123 ft 484 kts 28°
2026-05-06 09:10 -29.39819 152.53022 39111 ft 485 kts 28°
2026-05-06 09:10 -29.34727 152.58088 39129 ft 485 kts 28°
2026-05-06 09:11 -29.29628 152.63163 39124 ft 486 kts 28°
2026-05-06 09:11 -29.24516 152.68227 39125 ft 486 kts 28°
2026-05-06 09:12 -29.20234 152.72474 39126 ft 486 kts 28°
2026-05-06 09:12 -29.14298 152.78356 39110 ft 485 kts 28°
2026-05-06 09:13 -29.10042 152.82558 39115 ft 487 kts 28°
2026-05-06 09:13 -29.05020 152.87513 38870 ft 485 kts 28°
2026-05-06 09:13 -29.02465 152.90033 38615 ft 484 kts 28°
2026-05-06 09:14 -28.99913 152.92546 38342 ft 484 kts 28°
2026-05-06 09:14 -28.97357 152.95059 38074 ft 485 kts 28°
2026-05-06 09:14 -28.94802 152.97571 37687 ft 486 kts 28°
2026-05-06 09:14 -28.92233 153.00092 37017 ft 488 kts 29°
2026-05-06 09:15 -28.89601 153.02515 36206 ft 480 kts 22°
2026-05-06 09:15 -28.86770 153.04401 35486 ft 465 kts 13°
2026-05-06 09:15 -28.83809 153.05706 34810 ft 449 kts
2026-05-06 09:15 -28.80804 153.06522 34139 ft 442 kts
2026-05-06 09:16 -28.77790 153.07283 33370 ft 442 kts
2026-05-06 09:16 -28.74836 153.08043 32723 ft 440 kts
2026-05-06 09:16 -28.71813 153.08822 32004 ft 439 kts
2026-05-06 09:16 -28.68871 153.09581 31314 ft 439 kts
2026-05-06 09:17 -28.65914 153.10355 30852 ft 432 kts
2026-05-06 09:17 -28.63003 153.11106 30351 ft 426 kts
2026-05-06 09:17 -28.60126 153.11843 29795 ft 421 kts
2026-05-06 09:17 -28.57294 153.12571 29293 ft 414 kts
2026-05-06 09:18 -28.54503 153.13291 28798 ft 408 kts
2026-05-06 09:18 -28.51749 153.14001 28305 ft 403 kts
2026-05-06 09:18 -28.49036 153.14700 27824 ft 398 kts
2026-05-06 09:18 -28.46323 153.15394 27345 ft 407 kts
2026-05-06 09:19 -28.43489 153.16105 26844 ft 425 kts
2026-05-06 09:19 -28.40584 153.16845 26318 ft 430 kts
2026-05-06 09:19 -28.37674 153.17596 25794 ft 428 kts
2026-05-06 09:19 -28.34781 153.18345 25273 ft 423 kts
2026-05-06 09:20 -28.31928 153.19084 24750 ft 417 kts
2026-05-06 09:20 -28.29120 153.19803 24204 ft 412 kts
2026-05-06 09:20 -28.26342 153.20517 23708 ft 407 kts
2026-05-06 09:20 -28.23606 153.21222 23188 ft 399 kts
2026-05-06 09:21 -28.20919 153.21913 22700 ft 394 kts
2026-05-06 09:21 -28.18260 153.22465 22216 ft 384 kts
2026-05-06 09:21 -28.15641 153.22914 21736 ft 378 kts
2026-05-06 09:21 -28.13060 153.23359 21266 ft 373 kts
2026-05-06 09:22 -28.10507 153.23799 20799 ft 368 kts
2026-05-06 09:22 -28.07987 153.24236 20339 ft 365 kts
2026-05-06 09:22 -28.05527 153.24662 19886 ft 361 kts
2026-05-06 09:22 -28.03064 153.25089 19434 ft 356 kts
2026-05-06 09:23 -28.00593 153.25517 18966 ft 353 kts
2026-05-06 09:23 -27.98179 153.25938 18516 ft 350 kts
2026-05-06 09:23 -27.95804 153.26358 18035 ft 347 kts
2026-05-06 09:23 -27.93433 153.26766 17604 ft 346 kts
2026-05-06 09:24 -27.90952 153.27171 17152 ft 373 kts
2026-05-06 09:24 -27.88300 153.27609 16646 ft 384 kts
2026-05-06 09:24 -27.85687 153.28052 16151 ft 385 kts
2026-05-06 09:24 -27.83050 153.28502 15654 ft 382 kts
2026-05-06 09:25 -27.80444 153.28953 15174 ft 375 kts
2026-05-06 09:25 -27.77889 153.29397 14699 ft 369 kts
2026-05-06 09:25 -27.75375 153.29834 14230 ft 362 kts
2026-05-06 09:25 -27.72867 153.30271 13744 ft 357 kts
2026-05-06 09:26 -27.70438 153.30694 13270 ft 350 kts
2026-05-06 09:26 -27.68086 153.31103 12832 ft 344 kts
2026-05-06 09:26 -27.65741 153.31510 12401 ft 338 kts
2026-05-06 09:26 -27.63431 153.31834 11991 ft 331 kts
2026-05-06 09:27 -27.61133 153.31934 11785 ft 339 kts 360°
2026-05-06 09:27 -27.58743 153.32042 11532 ft 344 kts
2026-05-06 09:27 -27.56362 153.32160 11323 ft 339 kts
2026-05-06 09:27 -27.54055 153.32277 11203 ft 326 kts
2026-05-06 09:28 -27.51838 153.32391 11085 ft 312 kts
2026-05-06 09:28 -27.49713 153.32498 10938 ft 300 kts
2026-05-06 09:28 -27.47639 153.32600 10556 ft 297 kts
2026-05-06 09:28 -27.45572 153.32700 10156 ft 296 kts
2026-05-06 09:29 -27.43545 153.32798 9927 ft 288 kts
2026-05-06 09:29 -27.41535 153.32902 9613 ft 289 kts
2026-05-06 09:29 -27.39528 153.33011 9403 ft 289 kts
2026-05-06 09:29 -27.37523 153.33118 9190 ft 288 kts
2026-05-06 09:30 -27.35540 153.33456 8982 ft 290 kts 13°
2026-05-06 09:30 -27.33633 153.34231 8612 ft 293 kts 23°
2026-05-06 09:30 -27.31795 153.35192 8243 ft 290 kts 23°
2026-05-06 09:30 -27.29967 153.36138 7885 ft 287 kts 24°
2026-05-06 09:31 -27.28158 153.37068 7535 ft 284 kts 23°
2026-05-06 09:31 -27.26371 153.37984 7189 ft 283 kts 24°
2026-05-06 09:31 -27.24588 153.38896 7031 ft 282 kts 24°
2026-05-06 09:31 -27.22799 153.39809 7001 ft 283 kts 24°
2026-05-06 09:32 -27.20967 153.40616 6995 ft 283 kts 10°
2026-05-06 09:32 -27.19027 153.40581 7001 ft 280 kts 343°
2026-05-06 09:32 -27.17310 153.39596 7003 ft 279 kts 321°
2026-05-06 09:32 -27.15824 153.38201 6947 ft 278 kts 318°
2026-05-06 09:33 -27.14383 153.36765 6793 ft 273 kts 316°
2026-05-06 09:33 -27.13322 153.35113 6697 ft 259 kts 289°
2026-05-06 09:33 -27.13085 153.33160 6598 ft 245 kts 261°
2026-05-06 09:33 -27.13615 153.31410 6491 ft 232 kts 243°
2026-05-06 09:34 -27.14302 153.29827 6294 ft 227 kts 244°
2026-05-06 09:34 -27.14972 153.28258 6189 ft 213 kts 244°
2026-05-06 09:34 -27.15606 153.26836 6069 ft 196 kts 237°
2026-05-06 09:34 -27.16455 153.25734 5967 ft 178 kts 220°
2026-05-06 09:35 -27.17397 153.24979 5857 ft 154 kts 211°
2026-05-06 09:35 -27.18279 153.24416 5586 ft 144 kts 207°
2026-05-06 09:35 -27.19187 153.23886 5142 ft 148 kts 206°
2026-05-06 09:35 -27.20095 153.23368 4770 ft 145 kts 205°
2026-05-06 09:36 -27.20987 153.22858 4421 ft 142 kts 204°
2026-05-06 09:36 -27.21884 153.22348 4108 ft 147 kts 204°
2026-05-06 09:36 -27.22789 153.21830 3784 ft 145 kts 203°
2026-05-06 09:36 -27.23680 153.21321 3478 ft 144 kts 203°
2026-05-06 09:37 -27.24580 153.20808 3159 ft 145 kts 203°
2026-05-06 09:37 -27.25470 153.20298 2842 ft 142 kts 202°
2026-05-06 09:37 -27.26355 153.19793 2531 ft 143 kts 202°
2026-05-06 09:37 -27.27226 153.19295 2295 ft 142 kts 202°
2026-05-06 09:38 -27.28111 153.18790 2083 ft 141 kts 202°
2026-05-06 09:38 -27.28971 153.18297 1879 ft 140 kts 202°
2026-05-06 09:38 -27.29830 153.17806 1691 ft 133 kts 203°
2026-05-06 09:38 -27.30639 153.17343 1518 ft 132 kts 202°
2026-05-06 09:39 -27.31447 153.16881 1339 ft 127 kts 202°
2026-05-06 09:39 -27.32243 153.16428 1177 ft 132 kts 201°
2026-05-06 09:39 -27.33055 153.15962 997 ft 128 kts 203°
2026-05-06 09:39 -27.33838 153.15514 834 ft 125 kts 202°
2026-05-06 09:40 -27.34610 153.15071 666 ft 124 kts 203°
2026-05-06 09:40 -27.35400 153.14626 499 ft 133 kts 204°
2026-05-06 09:40 -27.37002 153.13712 163 ft 128 kts 204°
2026-05-06 09:41 -27.37789 153.13254 44 ft 125 kts 205°
2026-05-06 09:41 -27.38425 153.12890 22 ft 54 kts 209°
2026-05-06 09:41 -27.38745 153.12698 22 ft 51 kts 206°
2026-05-06 09:41 -27.38986 153.12483 21 ft 34 kts 232°
2026-05-06 09:42 -27.39060 153.12361 19 ft 0 kts 236°
2026-05-06 09:42 -27.39064 153.12355 19 ft 4 kts 236°
2026-05-06 09:42 -27.39106 153.12285 18 ft 18 kts 236°
2026-05-06 09:43 -27.39110 153.12155 18 ft 20 kts 328°
2026-05-06 09:43 -27.38955 153.12215 18 ft 30 kts 27°
2026-05-06 09:43 -27.38774 153.12316 18 ft 26 kts 26°
2026-05-06 09:43 -27.38672 153.12310 17 ft 15 kts 280°
2026-05-06 09:44 -27.38654 153.12247 18 ft 13 kts 313°
2026-05-06 09:44 -27.38640 153.12229 17 ft 0 kts 310°